SCP
0 -0 0 0 -0 0 0 0 0 0 0 0 0 0 0 0 0 0 0 0 0 1 1 1 1 1 1 1 1 0 0 0
-0 0 0 0 0 0 0 0 0 0 0 0 0 0 0 0 0 0 0 0 0 1 1 1 1 1 1 1 1 0 0 0
0 0 0 0 0 0 0 0 0 0 0 0 0 0 0 0 0 0 0 0 0 0 0 0 1 1 1 1 1 0 0 0
0 0 0 0 0 0 -0 0 0 0 0 0 0 0 0 0 0 0 0 0 0 0 0 1 1 1 0 0 0 0 0 0
0 -0 0 0 0 0 0 0 0 0 0 0 0 0 0 0 0 0 0 0 0 0 0 0 0 0 0 0 0 0 0 0
0 0 0 0 0 0 0 0 0 0 0 0 0 0 0 0 0 0 0 0 0 0 0 0 0 0 0 0 0 0 0 0
-0 -0 0 0 0 0 0 0 0 0 0 0 0 0 0 0 0 0 0 0 0 0 0 0 0 0 0 0 0 0 0 0
0 0 0 0 0 0 0 0 0 0 0 0 0 0 0 0 0 0 0 0 0 0 0 0 0 0 0 0 0 0 0 0
0 0 0 0 0 0 0 0 0 0 0 0 0 0 0 0 0 0 0 0 0 0 0 0 0 0 0 0 0 0 0 0
-0 0 -0 0 0 0 0 0 0 0 0 0 0 0 0 0 0 0 0 0 0 0 0 0 0 0 0 0 0 0 0 0
0 0 0 0 0 0 0 0 0 0 0 0 0 0 0 0 0 0 0 0 0 0 0 0 0 0 0 0 0 0 0 0
0 0 0 0 -0 0 0 0 0 0 0 0 0 0 0 0 0 0 0 0 0 0 0 0 0 0 0 0 0 0 0 0
0 0 0 0 0 0 0 0 0 0 0 0 0 0 0 0 0 0 0 0 0 0 0 0 0 0 0 0 0 0 0 0
0 0 0 0 0 0 0 0 0 0 0 0 0 0 0 0 0 0 0 0 0 0 0 0 0 0 0 0 0 0 0 0
0 0 0 0 0 0 0 0 0 0 0 0 0 0 0 0 0 0 0 0 0 0 0 0 0 0 0 0 0 0 0 0
0 0 0 0 0 0 0 0 0 0 0 0 0 0 0 0 0 0 0 0 0 0 0 0 0 0 0 0 0 0 0 0
0 0 0 0 0 -0 0 0 0 0 0 0 0 0 0 0 0 0 0 0 0 0 0 0 0 0 0 0 0 0 0 0
0 0 0 0 -0 -0 0 0 0 0 0 0 0 0 0 0 0 0 0 0 0 0 0 0 0 0 0 -0 0 0 0 0
-0 -0 0 0 0 0 0 0 0 0 0 0 0 0 0 0 0 0 0 0 0 0 0 0 0 0 0 0 0 0 0 0
0 -0 0 -0 -0 0 0 0 0 0 0 0 0 0 0 0 0 0 0 0 0 0 0 0 0 0 0 0 0 0 0 0
Wind_Speed_500mb
20 25 26 21 17 21 16 5 17 12 4 11 15 4 4 2 8 8 8 12 15 26 32 31 29 35 40 42 46 48 47 48
18 35 18 11 25 21 27 11 12 14 17 9 7 6 2 4 6 10 13 15 23 33 37 37 38 43 42 44 46 49 50 51
31 30 18 8 23 22 19 18 8 1 15 2 10 8 5 5 9 11 15 17 17 33 38 36 41 45 45 48 52 53 55 55
27 14 16 8 10 16 24 16 7 9 15 5 14 8 8 9 9 11 12 13 12 26 33 32 36 40 46 50 53 54 56 60
31 33 26 10 8 24 24 26 16 7 15 4 8 10 13 12 11 9 8 9 13 16 24 35 34 38 42 46 52 55 60 65
31 26 25 24 1 26 16 19 11 9 11 20 8 17 12 12 12 9 11 11 17 22 24 25 24 35 52 44 49 55 57 60
36 33 20 28 24 10 8 24 15 14 17 7 9 15 16 16 15 14 16 18 21 22 22 23 25 27 39 35 44 41 35 39
29 29 24 35 38 39 14 22 20 21 20 14 16 20 21 21 16 15 18 17 22 22 23 21 20 25 29 32 39 35 28 27
37 36 33 34 38 24 18 19 18 9 17 29 25 26 25 23 16 11 12 15 19 22 21 23 19 23 24 27 41 31 30 20
38 46 38 26 24 19 17 23 13 15 13 19 28 28 28 23 17 11 13 14 17 17 18 19 20 20 22 28 28 21 23 20
54 40 37 31 21 23 24 17 14 14 19 25 29 30 27 23 18 11 9 13 14 15 16 19 19 18 27 27 18 18 19 23
41 39 36 24 34 14 27 6 12 21 25 26 28 32 28 23 17 13 10 11 13 13 14 15 20 29 28 24 20 18 19 17
39 42 34 29 35 33 29 22 25 24 29 30 32 31 32 25 19 13 9 10 10 12 14 16 24 26 27 24 24 19 20 20
43 45 34 22 39 32 31 29 29 31 33 29 31 32 30 25 20 13 8 9 9 10 12 16 20 22 26 23 24 21 20 26
40 25 29 35 40 39 17 27 31 33 33 30 31 33 32 27 21 14 9 8 7 9 10 16 18 17 23 27 20 21 21 23
33 29 25 32 38 39 39 37 39 42 32 30 37 39 35 29 23 16 10 10 5 6 11 18 20 21 21 21 18 16 17 15
26 14 27 21 33 40 46 37 42 46 33 32 36 35 36 32 26 18 13 10 5 6 10 14 16 24 22 18 11 17 19 22
31 29 18 27 38 41 40 46 49 45 37 28 33 37 38 36 29 21 14 11 5 4 8 10 12 18 17 14 3 13 20 26
34 31 21 26 46 45 30 26 34 30 21 26 37 41 43 39 32 23 16 13 7 2 2 9 12 13 17 14 12 12 18 17
30 29 26 27 33 32 31 19 21 31 33 29 32 41 43 40 34 26 17 15 11 5 4 5 11 12 15 16 11 9 12 20
Wind_Direction_500mb
244 241 270 334 18 360 343 290 257 261 203 338 49 93 26 134 172 218 240 262 251 268 298 293 273 270 276 278 277 280 282 281
254 282 301 342 332 336 312 234 250 299 299 125 123 126 117 194 221 257 280 273 278 282 292 280 273 275 277 278 279 279 278 278
258 262 288 322 310 335 302 291 297 138 301 269 148 167 184 221 242 257 280 276 289 281 288 275 268 265 267 275 276 278 279 278
273 300 262 299 349 312 290 290 268 277 304 331 137 167 218 229 237 255 271 272 290 287 294 290 275 273 277 278 278 279 280 280
285 289 298 304 31 289 312 303 310 4 301 317 197 193 203 214 227 241 253 282 292 292 289 307 303 295 284 280 278 278 279 279
274 278 279 296 258 274 281 309 330 299 276 333 142 186 207 218 249 261 282 296 291 301 298 288 288 295 292 289 278 282 283 285
269 283 303 303 289 273 222 282 238 271 274 305 185 194 216 223 242 264 281 294 303 296 288 285 291 288 293 311 301 300 294 286
287 303 301 300 297 298 256 253 233 239 248 238 215 216 224 228 251 262 282 287 298 291 287 295 298 292 299 300 292 296 294 286
287 287 284 302 289 290 277 270 298 282 258 206 216 222 229 242 251 265 277 298 293 286 290 299 288 291 300 283 289 294 304 301
278 270 268 277 299 289 268 270 306 290 276 227 226 226 230 237 239 258 276 300 298 290 292 291 295 302 289 286 290 301 315 288
261 256 259 274 268 264 282 287 276 261 248 239 232 231 226 227 222 239 279 289 297 295 294 298 306 299 283 287 304 282 281 274
259 254 256 240 258 190 268 252 267 253 252 246 238 226 218 218 216 235 266 285 298 305 299 308 307 291 297 297 291 283 278 274
254 253 250 233 255 246 252 232 253 255 246 243 231 222 216 218 214 224 253 278 299 309 308 315 317 309 300 288 282 269 250 265
250 225 226 220 255 259 228 246 257 256 244 246 231 219 214 209 206 217 232 267 290 299 307 309 303 311 316 308 298 288 276 258
249 202 221 207 257 276 246 270 267 278 268 242 226 217 210 205 203 209 225 247 275 295 317 309 305 312 324 321 295 290 282 277
249 215 202 252 252 255 250 251 269 266 251 241 223 213 208 202 199 202 212 231 265 315 313 317 335 325 328 327 328 317 313 305
281 284 247 252 276 281 286 275 267 269 243 238 219 209 203 200 197 196 206 218 246 291 305 330 344 342 337 336 5 342 340 333
262 271 270 280 283 283 288 274 271 265 236 226 209 200 196 197 195 196 203 207 215 286 308 343 348 348 358 1 341 13 9 19
261 275 253 284 270 266 264 270 269 256 234 221 207 197 194 194 194 192 195 194 182 207 338 17 48 355 2 347 341 347 7 10
268 273 263 271 293 294 276 274 268 225 214 230 197 195 194 192 192 190 191 182 173 172 83 6 53 355 344 348 342 329 27 28
Wind_Speed_850mb
20 25 26 21 17 21 16 5 17 12 4 11 15 4 4 2 8 8 8 12 15 26 32 31 29 35 40 42 46 48 47 48
18 35 18 11 25 21 27 11 12 14 17 9 7 6 2 4 6 10 13 15 23 33 37 37 38 43 42 44 46 49 50 51
31 30 18 8 23 22 19 18 8 1 15 2 10 8 5 5 9 11 15 17 17 33 38 36 41 45 45 48 52 53 55 55
27 14 16 8 10 16 24 16 7 9 15 5 14 8 8 9 9 11 12 13 12 26 33 32 36 40 46 50 53 54 56 60
31 33 26 10 8 24 24 26 16 7 15 4 8 10 13 12 11 9 8 9 13 16 24 35 34 38 42 46 52 55 60 65
31 26 25 24 1 26 16 19 11 9 11 20 8 17 12 12 12 9 11 11 17 22 24 25 24 35 52 44 49 55 57 60
36 33 20 28 24 10 8 24 15 14 17 7 9 15 16 16 15 14 16 18 21 22 22 23 25 27 39 35 44 41 35 39
29 29 24 35 38 39 14 22 20 21 20 14 16 20 21 21 16 15 18 17 22 22 23 21 20 25 29 32 39 35 28 27
37 36 33 34 38 24 18 19 18 9 17 29 25 26 25 23 16 11 12 15 19 22 21 23 19 23 24 27 41 31 30 20
38 46 38 26 24 19 17 23 13 15 13 19 28 28 28 23 17 11 13 14 17 17 18 19 20 20 22 28 28 21 23 20
54 40 37 31 21 23 24 17 14 14 19 25 29 30 27 23 18 11 9 13 14 15 16 19 19 18 27 27 18 18 19 23
41 39 36 24 34 14 27 6 12 21 25 26 28 32 28 23 17 13 10 11 13 13 14 15 20 29 28 24 20 18 19 17
39 42 34 29 35 33 29 22 25 24 29 30 32 31 32 25 19 13 9 10 10 12 14 16 24 26 27 24 24 19 20 20
43 45 34 22 39 32 31 29 29 31 33 29 31 32 30 25 20 13 8 9 9 10 12 16 20 22 26 23 24 21 20 26
40 25 29 35 40 39 17 27 31 33 33 30 31 33 32 27 21 14 9 8 7 9 10 16 18 17 23 27 20 21 21 23
33 29 25 32 38 39 39 37 39 42 32 30 37 39 35 29 23 16 10 10 5 6 11 18 20 21 21 21 18 16 17 15
26 14 27 21 33 40 46 37 42 46 33 32 36 35 36 32 26 18 13 10 5 6 10 14 16 24 22 18 11 17 19 22
31 29 18 27 38 41 40 46 49 45 37 28 33 37 38 36 29 21 14 11 5 4 8 10 12 18 17 14 3 13 20 26
34 31 21 26 46 45 30 26 34 30 21 26 37 41 43 39 32 23 16 13 7 2 2 9 12 13 17 14 12 12 18 17
30 29 26 27 33 32 31 19 21 31 33 29 32 41 43 40 34 26 17 15 11 5 4 5 11 12 15 16 11 9 12 20
Wind_Direction_850mb
244 241 270 334 18 360 343 290 257 261 203 338 49 93 26 134 172 218 240 262 251 268 298 293 273 270 276 278 277 280 282 281
254 282 301 342 332 336 312 234 250 299 299 125 123 126 117 194 221 257 280 273 278 282 292 280 273 275 277 278 279 279 278 278
258 262 288 322 310 335 302 291 297 138 301 269 148 167 184 221 242 257 280 276 289 281 288 275 268 265 267 275 276 278 279 278
273 300 262 299 349 312 290 290 268 277 304 331 137 167 218 229 237 255 271 272 290 287 294 290 275 273 277 278 278 279 280 280
285 289 298 304 31 289 312 303 310 4 301 317 197 193 203 214 227 241 253 282 292 292 289 307 303 295 284 280 278 278 279 279
274 278 279 296 258 274 281 309 330 299 276 333 142 186 207 218 249 261 282 296 291 301 298 288 288 295 292 289 278 282 283 285
269 283 303 303 289 273 222 282 238 271 274 305 185 194 216 223 242 264 281 294 303 296 288 285 291 288 293 311 301 300 294 286
287 303 301 300 297 298 256 253 233 239 248 238 215 216 224 228 251 262 282 287 298 291 287 295 298 292 299 300 292 296 294 286
287 287 284 302 289 290 277 270 298 282 258 206 216 222 229 242 251 265 277 298 293 286 290 299 288 291 300 283 289 294 304 301
278 270 268 277 299 289 268 270 306 290 276 227 226 226 230 237 239 258 276 300 298 290 292 291 295 302 289 286 290 301 315 288
261 256 259 274 268 264 282 287 276 261 248 239 232 231 226 227 222 239 279 289 297 295 294 298 306 299 283 287 304 282 281 274
259 254 256 240 258 190 268 252 267 253 252 246 238 226 218 218 216 235 266 285 298 305 299 308 307 291 297 297 291 283 278 274
254 253 250 233 255 246 252 232 253 255 246 243 231 222 216 218 214 224 253 278 299 309 308 315 317 309 300 288 282 269 250 265
250 225 226 220 255 259 228 246 257 256 244 246 231 219 214 209 206 217 232 267 290 299 307 309 303 311 316 308 298 288 276 258
249 202 221 207 257 276 246 270 267 278 268 242 226 217 210 205 203 209 225 247 275 295 317 309 305 312 324 321 295 290 282 277
249 215 202 252 252 255 250 251 269 266 251 241 223 213 208 202 199 202 212 231 265 315 313 317 335 325 328 327 328 317 313 305
281 284 247 252 276 281 286 275 267 269 243 238 219 209 203 200 197 196 206 218 246 291 305 330 344 342 337 336 5 342 340 333
262 271 270 280 283 283 288 274 271 265 236 226 209 200 196 197 195 196 203 207 215 286 308 343 348 348 358 1 341 13 9 19
261 275 253 284 270 266 264 270 269 256 234 221 207 197 194 194 194 192 195 194 182 207 338 17 48 355 2 347 341 347 7 10
268 273 263 271 293 294 276 274 268 225 214 230 197 195 194 192 192 190 191 182 173 172 83 6 53 355 344 348 342 329 27 28